This is the latest recevied weather packets stored in our database for station/object SQ5AAG-2. If no packets are shown the sender has not sent any weather packets the latest 10 day(s).
| Time | Temp. | Humidity | Pressure | Rain* | Wind** | Luminosity | Snow |
|---|---|---|---|---|---|---|---|
| 1787398931 | 19.44° C | 63% | 995.2 hPa | 0 mm | - | - | - |
| 1787398895 | 19.44° C | 63% | 995.2 hPa | 0 mm | - | - | - |
| 1787398645 | 19.44° C | 64% | 995.1 hPa | 0 mm | - | - | - |
| 1787398595 | 19.44° C | 64% | 995.1 hPa | 0 mm | - | - | - |
| 1787398294 | 19.44° C | 64% | 995.2 hPa | 0 mm | - | - | - |
| 1787397994 | 19.44° C | 64% | 995 hPa | 0 mm | - | - | - |
| 1787397694 | 18.89° C | 64% | 995 hPa | 0 mm | - | - | - |
| 1787397395 | 18.89° C | 64% | 995 hPa | 0 mm | - | - | - |
| 1787397093 | 19.44° C | 64% | 994.9 hPa | 0 mm | - | - | - |
| 1787396794 | 18.89° C | 65% | 994.7 hPa | 0 mm | - | - | - |
| 1787396493 | 18.89° C | 66% | 994.5 hPa | 0 mm | - | - | - |
| 1787396192 | 18.89° C | 66% | 994.6 hPa | 0 mm | - | - | - |
| 1787395892 | 18.33° C | 67% | 994.5 hPa | 0 mm | - | - | - |
| 1787395592 | 17.78° C | 68% | 994.5 hPa | 0 mm | - | - | - |
| 1787395292 | 17.78° C | 67% | 994.3 hPa | 0 mm | - | - | - |
| 1787394991 | 17.78° C | 67% | 994.4 hPa | 0 mm | - | - | - |
| 1787394691 | 17.78° C | 67% | 994.2 hPa | 0 mm | - | - | - |
| 1787394391 | 17.78° C | 67% | 994.2 hPa | 0 mm | - | - | - |
| 1787394090 | 17.78° C | 66% | 994.1 hPa | 0 mm | - | - | - |
| 1787393790 | 17.78° C | 66% | 993.8 hPa | 0 mm | - | - | - |
| 1787393490 | 17.78° C | 66% | 993.8 hPa | 0 mm | - | - | - |
| 1787393190 | 17.78° C | 67% | 993.9 hPa | 0 mm | - | - | - |
| 1787392589 | 17.78° C | 66% | 993.5 hPa | 0 mm | - | - | - |
| 1787392289 | 18.33° C | 66% | 993.6 hPa | 0 mm | - | - | - |
| 1787391988 | 18.33° C | 65% | 993.5 hPa | 0 mm | - | - | - |
* Rain latest hour (hover to see other rain measurements)
** Current wind speed in m/s (hover to see current wind gust speed)